Time,TemperatureF,DewpointF,PressureIn,WindDirection,WindDirectionDegrees,WindSpeedMPH,WindSpeedGustMPH,Humidity,HourlyPrecipIn,Conditions,Clouds,dailyrainin,SoftwareType,DateUTC
2013-01-20 00:00:00,43.2,28.9,29.98,SSW,195,0.0,5.0,57,0.00,,,0.00,meteohub,2013-01-20 05:00:00,
2013-01-20 00:01:00,43.2,28.9,29.98,SSW,194,1.0,5.0,57,0.00,,,0.00,meteohub,2013-01-20 05:01:00,
2013-01-20 00:02:00,43.2,28.9,29.98,South,178,1.0,5.0,57,0.00,,,0.00,meteohub,2013-01-20 05:02:00,
2013-01-20 00:03:00,43.2,28.9,29.98,SSE,167,1.0,5.0,57,0.00,,,0.00,meteohub,2013-01-20 05:03:00,
2013-01-20 00:08:00,43.0,28.8,29.98,SSE,162,1.0,4.0,57,0.00,,,0.00,meteohub,2013-01-20 05:08:00,
2013-01-20 00:13:00,43.0,28.8,29.98,SSE,163,1.0,7.0,57,0.00,,,0.00,meteohub,2013-01-20 05:13:00,
2013-01-20 00:18:00,43.0,28.8,29.97,SSW,193,1.0,7.0,57,0.00,,,0.00,meteohub,2013-01-20 05:18:00,
2013-01-20 00:23:00,43.0,28.8,29.97,South,173,0.0,7.0,57,0.00,,,0.00,meteohub,2013-01-20 05:23:00,
2013-01-20 00:28:00,43.2,29.3,29.97,SSW,192,0.0,6.0,58,0.00,,,0.00,meteohub,2013-01-20 05:28:00,
2013-01-20 00:33:00,43.2,28.9,29.97,South,186,0.0,6.0,57,0.00,,,0.00,meteohub,2013-01-20 05:33:00,
2013-01-20 00:38:00,43.0,28.8,29.96,SW,227,0.0,6.0,57,0.00,,,0.00,meteohub,2013-01-20 05:38:00,
2013-01-20 00:43:00,42.8,29.1,29.96,SSW,192,1.0,6.0,58,0.00,,,0.00,meteohub,2013-01-20 05:43:00,
2013-01-20 00:48:00,42.6,28.9,29.96,WSW,242,1.0,6.0,58,0.00,,,0.00,meteohub,2013-01-20 05:48:00,
2013-01-20 00:53:00,42.4,28.8,29.96,SW,214,1.0,4.0,58,0.00,,,0.00,meteohub,2013-01-20 05:53:00,
2013-01-20 00:58:00,42.4,28.8,29.96,SW,219,0.0,4.0,58,0.00,,,0.00,meteohub,2013-01-20 05:58:00,
2013-01-20 01:03:00,42.6,29.3,29.95,South,190,0.0,4.0,59,0.00,,,0.00,meteohub,2013-01-20 06:03:00,
2013-01-20 01:08:00,42.6,28.9,29.95,South,190,0.0,5.0,58,0.00,,,0.00,meteohub,2013-01-20 06:08:00,
2013-01-20 01:16:00,42.4,28.8,29.95,South,181,0.0,5.0,58,0.00,,,0.00,meteohub,2013-01-20 06:16:00,
2013-01-20 01:21:00,42.4,28.8,29.95,SSW,195,0.0,6.0,58,0.00,,,0.00,meteohub,2013-01-20 06:21:00,
2013-01-20 01:26:00,42.4,28.8,29.94,South,184,2.0,6.0,58,0.00,,,0.00,meteohub,2013-01-20 06:26:00,
2013-01-20 01:31:00,42.4,29.1,29.94,South,186,0.0,7.0,59,0.00,,,0.00,meteohub,2013-01-20 06:31:00,
2013-01-20 01:36:00,42.4,29.1,29.94,SSE,163,1.0,7.0,59,0.00,,,0.00,meteohub,2013-01-20 06:36:00,
2013-01-20 01:41:00,42.4,28.8,29.94,SSE,153,3.0,5.0,58,0.00,,,0.00,meteohub,2013-01-20 06:41:00,
2013-01-20 01:46:00,42.4,28.8,29.94,South,179,2.0,5.0,58,0.00,,,0.00,meteohub,2013-01-20 06:46:00,
2013-01-20 01:51:00,42.6,28.9,29.94,South,169,1.0,5.0,58,0.00,,,0.00,meteohub,2013-01-20 06:51:00,
2013-01-20 01:56:00,42.6,28.9,29.94,SSW,209,0.0,7.0,58,0.00,,,0.00,meteohub,2013-01-20 06:56:00,
2013-01-20 02:02:00,42.6,28.9,29.94,SSW,205,0.0,7.0,58,0.00,,,0.00,meteohub,2013-01-20 07:02:00,
2013-01-20 02:07:00,42.6,28.9,29.94,South,172,1.0,7.0,58,0.00,,,0.00,meteohub,2013-01-20 07:07:00,
2013-01-20 02:12:00,42.6,28.9,29.94,SSE,162,0.0,6.0,58,0.00,,,0.00,meteohub,2013-01-20 07:12:00,
2013-01-20 02:17:00,42.4,28.8,29.94,SSW,195,1.0,6.0,58,0.00,,,0.00,meteohub,2013-01-20 07:17:00,
2013-01-20 02:22:00,42.4,28.8,29.94,SSE,167,0.0,4.0,58,0.00,,,0.00,meteohub,2013-01-20 07:22:00,
2013-01-20 02:27:00,42.3,28.6,29.93,SSW,192,0.0,2.0,58,0.00,,,0.00,meteohub,2013-01-20 07:27:00,
2013-01-20 02:32:00,42.3,28.6,29.93,SSE,163,1.0,2.0,58,0.00,,,0.00,meteohub,2013-01-20 07:32:00,
2013-01-20 02:37:00,42.1,28.8,29.93,SSW,196,0.0,7.0,59,0.00,,,0.00,meteohub,2013-01-20 07:37:00,
2013-01-20 02:42:00,42.1,28.8,29.93,SSE,158,0.0,7.0,59,0.00,,,0.00,meteohub,2013-01-20 07:42:00,
2013-01-20 02:47:00,42.1,28.8,29.92,WSW,240,1.0,7.0,59,0.00,,,0.00,meteohub,2013-01-20 07:47:00,
2013-01-20 02:52:00,41.9,28.6,29.92,South,188,0.0,2.0,59,0.00,,,0.00,meteohub,2013-01-20 07:52:00,
2013-01-20 02:57:00,41.9,28.6,29.92,SSW,203,0.0,2.0,59,0.00,,,0.00,meteohub,2013-01-20 07:57:00,
2013-01-20 03:02:00,41.7,28.4,29.93,South,174,1.0,3.0,59,0.00,,,0.00,meteohub,2013-01-20 08:02:00,
2013-01-20 03:07:00,41.7,28.4,29.92,SSE,159,1.0,4.0,59,0.00,,,0.00,meteohub,2013-01-20 08:07:00,
2013-01-20 03:12:00,41.5,28.8,29.92,South,189,0.0,4.0,60,0.00,,,0.00,meteohub,2013-01-20 08:12:00,
2013-01-20 03:17:00,41.5,28.8,29.92,South,189,0.0,4.0,60,0.00,,,0.00,meteohub,2013-01-20 08:17:00,
2013-01-20 03:22:00,41.2,28.8,29.92,South,189,0.0,3.0,61,0.00,,,0.00,meteohub,2013-01-20 08:22:00,
2013-01-20 03:27:00,40.8,28.8,29.92,South,189,0.0,1.0,62,0.00,,,0.00,meteohub,2013-01-20 08:27:00,
2013-01-20 03:32:00,40.5,28.4,29.92,South,189,0.0,1.0,62,0.00,,,0.00,meteohub,2013-01-20 08:32:00,
2013-01-20 03:37:00,40.3,28.8,29.91,South,189,0.0,1.0,63,0.00,,,0.00,meteohub,2013-01-20 08:37:00,
2013-01-20 03:42:00,39.9,28.4,29.91,South,189,0.0,1.0,63,0.00,,,0.00,meteohub,2013-01-20 08:42:00,
2013-01-20 03:47:00,39.7,28.6,29.91,South,189,0.0,1.0,64,0.00,,,0.00,meteohub,2013-01-20 08:47:00,
2013-01-20 03:52:00,39.6,28.8,29.91,South,188,0.0,1.0,65,0.00,,,0.00,meteohub,2013-01-20 08:52:00,
2013-01-20 03:57:00,39.6,28.4,29.90,SSE,164,1.0,2.0,64,0.00,,,0.00,meteohub,2013-01-20 08:57:00,
2013-01-20 04:02:00,39.6,28.8,29.90,SSE,164,0.0,2.0,65,0.00,,,0.00,meteohub,2013-01-20 09:02:00,
2013-01-20 04:07:00,39.6,28.8,29.90,South,178,1.0,2.0,65,0.00,,,0.00,meteohub,2013-01-20 09:07:00,
2013-01-20 04:12:00,39.6,28.8,29.90,South,190,2.0,2.0,65,0.00,,,0.00,meteohub,2013-01-20 09:12:00,
2013-01-20 04:17:00,39.6,28.8,29.90,South,188,0.0,3.0,65,0.00,,,0.00,meteohub,2013-01-20 09:17:00,
2013-01-20 04:22:00,39.4,28.6,29.90,South,189,0.0,3.0,65,0.00,,,0.00,meteohub,2013-01-20 09:22:00,
2013-01-20 04:27:00,39.4,28.6,29.89,South,189,0.0,3.0,65,0.00,,,0.00,meteohub,2013-01-20 09:27:00,
2013-01-20 04:32:00,39.2,28.8,29.89,South,183,0.0,1.0,66,0.00,,,0.00,meteohub,2013-01-20 09:32:00,
2013-01-20 04:37:00,39.0,28.6,29.89,South,169,0.0,2.0,66,0.00,,,0.00,meteohub,2013-01-20 09:37:00,
2013-01-20 04:42:00,39.0,28.6,29.89,South,169,0.0,2.0,66,0.00,,,0.00,meteohub,2013-01-20 09:42:00,
2013-01-20 04:47:00,38.8,28.4,29.88,South,169,1.0,2.0,66,0.00,,,0.00,meteohub,2013-01-20 09:47:00,
2013-01-20 04:52:00,38.7,28.6,29.89,SSE,168,2.0,2.0,67,0.00,,,0.00,meteohub,2013-01-20 09:52:00,
2013-01-20 04:57:00,38.7,28.6,29.88,South,179,0.0,2.0,67,0.00,,,0.00,meteohub,2013-01-20 09:57:00,
2013-01-20 05:02:00,38.7,28.6,29.88,SSE,162,0.0,3.0,67,0.00,,,0.00,meteohub,2013-01-20 10:02:00,
2013-01-20 05:07:00,38.8,28.8,29.88,SSW,213,0.0,5.0,67,0.00,,,0.00,meteohub,2013-01-20 10:07:00,
2013-01-20 05:13:00,38.8,28.8,29.88,SSW,210,0.0,5.0,67,0.00,,,0.00,meteohub,2013-01-20 10:13:00,
2013-01-20 05:18:00,38.7,28.2,29.88,SSW,203,0.0,5.0,66,0.00,,,0.00,meteohub,2013-01-20 10:18:00,
2013-01-20 05:23:00,38.8,28.4,29.88,SSW,192,2.0,3.0,66,0.00,,,0.00,meteohub,2013-01-20 10:23:00,
2013-01-20 05:28:00,38.8,28.4,29.88,South,184,1.0,6.0,66,0.00,,,0.00,meteohub,2013-01-20 10:28:00,
2013-01-20 05:33:00,38.8,28.4,29.88,SSW,208,1.0,6.0,66,0.00,,,0.00,meteohub,2013-01-20 10:33:00,
2013-01-20 05:38:00,38.8,28.4,29.88,SSW,193,1.0,6.0,66,0.00,,,0.00,meteohub,2013-01-20 10:38:00,
2013-01-20 05:43:00,38.8,28.4,29.88,South,172,0.0,3.0,66,0.00,,,0.00,meteohub,2013-01-20 10:43:00,
2013-01-20 05:48:00,38.8,28.4,29.88,SSW,200,0.0,3.0,66,0.00,,,0.00,meteohub,2013-01-20 10:48:00,
2013-01-20 05:53:00,38.8,28.4,29.88,SSW,194,1.0,3.0,66,0.00,,,0.00,meteohub,2013-01-20 10:53:00,
2013-01-20 05:58:00,38.8,28.4,29.88,SSW,211,2.0,3.0,66,0.00,,,0.00,meteohub,2013-01-20 10:58:00,
2013-01-20 06:03:00,38.8,28.0,29.88,SW,218,2.0,3.0,65,0.00,,,0.00,meteohub,2013-01-20 11:03:00,
2013-01-20 06:08:00,39.0,28.2,29.87,South,184,2.0,3.0,65,0.00,,,0.00,meteohub,2013-01-20 11:08:00,
2013-01-20 06:13:00,39.2,28.4,29.87,SSE,164,2.0,5.0,65,0.00,,,0.00,meteohub,2013-01-20 11:13:00,
2013-01-20 06:18:00,39.4,28.2,29.87,SW,215,0.0,5.0,64,0.00,,,0.00,meteohub,2013-01-20 11:18:00,
2013-01-20 06:23:00,39.4,28.6,29.87,South,182,0.0,5.0,65,0.00,,,0.00,meteohub,2013-01-20 11:23:00,
2013-01-20 06:28:00,39.4,28.2,29.87,SSW,198,0.0,4.0,64,0.00,,,0.00,meteohub,2013-01-20 11:28:00,
2013-01-20 06:33:00,39.0,28.2,29.87,South,190,0.0,4.0,65,0.00,,,0.00,meteohub,2013-01-20 11:33:00,
2013-01-20 06:38:00,39.0,28.2,29.87,South,171,1.0,4.0,65,0.00,,,0.00,meteohub,2013-01-20 11:38:00,
2013-01-20 06:43:00,38.8,28.0,29.88,SSE,165,2.0,2.0,65,0.00,,,0.00,meteohub,2013-01-20 11:43:00,
2013-01-20 06:48:00,38.7,28.2,29.88,South,173,2.0,3.0,66,0.00,,,0.00,meteohub,2013-01-20 11:48:00,
2013-01-20 06:53:00,38.7,28.2,29.87,SSE,165,1.0,3.0,66,0.00,,,0.00,meteohub,2013-01-20 11:53:00,
2013-01-20 06:58:00,38.7,28.2,29.88,SSE,162,0.0,3.0,66,0.00,,,0.00,meteohub,2013-01-20 11:58:00,
2013-01-20 07:03:00,38.5,28.0,29.88,SSE,162,1.0,3.0,66,0.00,,,0.00,meteohub,2013-01-20 12:03:00,
2013-01-20 07:08:00,38.3,28.2,29.88,South,173,0.0,3.0,67,0.00,,,0.00,meteohub,2013-01-20 12:08:00,
2013-01-20 07:13:00,38.1,28.2,29.87,SSE,154,0.0,3.0,67,0.00,,,0.00,meteohub,2013-01-20 12:13:00,
2013-01-20 07:18:00,38.1,28.2,29.88,South,170,1.0,4.0,67,0.00,,,0.00,meteohub,2013-01-20 12:18:00,
2013-01-20 07:23:00,38.1,28.2,29.87,South,171,2.0,4.0,67,0.00,,,0.00,meteohub,2013-01-20 12:23:00,
2013-01-20 07:28:00,37.9,28.0,29.87,South,171,0.0,4.0,67,0.00,,,0.00,meteohub,2013-01-20 12:28:00,
2013-01-20 07:33:00,37.9,28.0,29.87,SSW,196,1.0,2.0,67,0.00,,,0.00,meteohub,2013-01-20 12:33:00,
2013-01-20 07:38:00,37.9,28.0,29.87,South,175,1.0,2.0,67,0.00,,,0.00,meteohub,2013-01-20 12:38:00,
2013-01-20 07:43:00,37.9,28.0,29.87,South,180,1.0,2.0,67,0.00,,,0.00,meteohub,2013-01-20 12:43:00,
2013-01-20 07:48:00,38.1,28.2,29.87,SE,135,0.0,2.0,67,0.00,,,0.00,meteohub,2013-01-20 12:48:00,
2013-01-20 07:53:00,38.3,27.9,29.87,SSE,168,1.0,2.0,66,0.00,,,0.00,meteohub,2013-01-20 12:53:00,
2013-01-20 07:58:00,38.7,28.6,29.87,SSE,166,2.0,5.0,67,0.00,,,0.00,meteohub,2013-01-20 12:58:00,
2013-01-20 08:03:00,38.8,28.4,29.88,SSW,209,0.0,5.0,66,0.00,,,0.00,meteohub,2013-01-20 13:03:00,
2013-01-20 08:08:00,39.2,28.4,29.87,SSE,160,2.0,5.0,65,0.00,,,0.00,meteohub,2013-01-20 13:08:00,
2013-01-20 08:13:00,39.6,28.8,29.88,SSW,192,0.0,4.0,65,0.00,,,0.00,meteohub,2013-01-20 13:13:00,
2013-01-20 08:18:00,39.7,28.9,29.88,South,171,1.0,4.0,65,0.00,,,0.00,meteohub,2013-01-20 13:18:00,
2013-01-20 08:23:00,40.1,28.9,29.88,SSE,154,0.0,4.0,64,0.00,,,0.00,meteohub,2013-01-20 13:23:00,
2013-01-20 08:28:00,40.5,29.3,29.88,NW,309,1.0,3.0,64,0.00,,,0.00,meteohub,2013-01-20 13:28:00,
2013-01-20 08:34:00,40.8,29.7,29.88,SSE,149,2.0,3.0,64,0.00,,,0.00,meteohub,2013-01-20 13:34:00,
2013-01-20 08:39:00,41.4,29.7,29.88,SE,138,0.0,4.0,63,0.00,,,0.00,meteohub,2013-01-20 13:39:00,
2013-01-20 08:44:00,41.7,29.7,29.88,SSW,198,2.0,4.0,62,0.00,,,0.00,meteohub,2013-01-20 13:44:00,
2013-01-20 08:49:00,42.4,30.4,29.88,West,276,0.0,4.0,62,0.00,,,0.00,meteohub,2013-01-20 13:49:00,
2013-01-20 08:54:00,43.3,30.4,29.88,SW,227,0.0,4.0,60,0.00,,,0.00,meteohub,2013-01-20 13:54:00,
2013-01-20 08:59:00,44.2,30.4,29.88,South,171,2.0,5.0,58,0.00,,,0.00,meteohub,2013-01-20 13:59:00,
2013-01-20 09:04:00,44.8,30.9,29.88,SSE,163,0.0,5.0,58,0.00,,,0.00,meteohub,2013-01-20 14:04:00,
2013-01-20 09:09:00,45.1,31.3,29.89,West,261,0.0,4.0,58,0.00,,,0.00,meteohub,2013-01-20 14:09:00,
2013-01-20 09:14:00,45.5,30.7,29.89,South,184,0.0,4.0,56,0.00,,,0.00,meteohub,2013-01-20 14:14:00,
2013-01-20 09:19:00,45.7,31.8,29.89,South,169,0.0,4.0,58,0.00,,,0.00,meteohub,2013-01-20 14:19:00,
2013-01-20 09:24:00,46.0,31.3,29.89,South,178,0.0,4.0,56,0.00,,,0.00,meteohub,2013-01-20 14:24:00,
2013-01-20 09:29:00,46.8,31.8,29.89,WNW,300,0.0,4.0,56,0.00,,,0.00,meteohub,2013-01-20 14:29:00,
2013-01-20 09:34:00,47.7,32.4,29.89,NNW,329,0.0,4.0,55,0.00,,,0.00,meteohub,2013-01-20 14:34:00,
2013-01-20 09:39:00,48.6,33.1,29.89,SSE,147,3.0,4.0,55,0.00,,,0.00,meteohub,2013-01-20 14:39:00,
2013-01-20 09:44:00,49.6,33.3,29.89,NW,315,2.0,4.0,53,0.00,,,0.00,meteohub,2013-01-20 14:44:00,
2013-01-20 09:49:00,50.4,32.9,29.90,SSE,159,2.0,4.0,51,0.00,,,0.00,meteohub,2013-01-20 14:49:00,
2013-01-20 09:54:00,51.1,32.0,29.90,NNE,21,1.0,7.0,48,0.00,,,0.00,meteohub,2013-01-20 14:54:00,
2013-01-20 09:59:00,51.4,33.4,29.90,SW,225,1.0,7.0,50,0.00,,,0.00,meteohub,2013-01-20 14:59:00,
2013-01-20 10:04:00,52.0,31.8,29.89,SSE,159,1.0,7.0,46,0.00,,,0.00,meteohub,2013-01-20 15:04:00,
2013-01-20 10:09:00,52.3,34.2,29.89,South,182,0.0,9.0,50,0.00,,,0.00,meteohub,2013-01-20 15:09:00,
2013-01-20 10:14:00,53.1,33.8,29.89,SSE,160,1.0,9.0,48,0.00,,,0.00,meteohub,2013-01-20 15:14:00,
2013-01-20 10:19:00,53.4,33.6,29.89,NW,323,1.0,9.0,47,0.00,,,0.00,meteohub,2013-01-20 15:19:00,
2013-01-20 10:24:00,54.0,33.6,29.89,SSE,164,0.0,4.0,46,0.00,,,0.00,meteohub,2013-01-20 15:24:00,
2013-01-20 10:29:00,54.3,34.0,29.89,South,186,0.0,4.0,46,0.00,,,0.00,meteohub,2013-01-20 15:29:00,
2013-01-20 10:34:00,54.5,34.2,29.89,West,261,1.0,6.0,46,0.00,,,0.00,meteohub,2013-01-20 15:34:00,
2013-01-20 10:39:00,54.7,34.3,29.89,SE,142,1.0,6.0,46,0.00,,,0.00,meteohub,2013-01-20 15:39:00,
2013-01-20 10:44:00,55.0,32.9,29.89,West,281,3.0,6.0,43,0.00,,,0.00,meteohub,2013-01-20 15:44:00,
2013-01-20 10:49:00,55.0,34.7,29.89,NNW,331,1.0,4.0,46,0.00,,,0.00,meteohub,2013-01-20 15:49:00,
2013-01-20 10:54:00,54.9,33.4,29.88,WNW,288,2.0,6.0,44,0.00,,,0.00,meteohub,2013-01-20 15:54:00,
2013-01-20 10:59:00,54.7,33.8,29.89,NW,306,0.0,6.0,45,0.00,,,0.00,meteohub,2013-01-20 15:59:00,
2013-01-20 11:04:00,55.6,34.5,29.88,SE,138,1.0,6.0,45,0.00,,,0.00,meteohub,2013-01-20 16:04:00,
2013-01-20 11:09:00,56.1,34.5,29.88,SW,222,1.0,5.0,44,0.00,,,0.00,meteohub,2013-01-20 16:09:00,
2013-01-20 11:14:00,55.9,33.8,29.88,WNW,286,3.0,5.0,43,0.00,,,0.00,meteohub,2013-01-20 16:14:00,
2013-01-20 11:19:00,55.9,36.0,29.88,WNW,293,1.0,9.0,47,0.00,,,0.00,meteohub,2013-01-20 16:19:00,
2013-01-20 11:24:00,56.1,34.0,29.88,SW,227,1.0,9.0,43,0.00,,,0.00,meteohub,2013-01-20 16:24:00,
2013-01-20 11:29:00,56.5,34.3,29.87,West,267,1.0,9.0,43,0.00,,,0.00,meteohub,2013-01-20 16:29:00,
2013-01-20 11:34:00,57.2,36.0,29.87,NNW,329,5.0,5.0,45,0.00,,,0.00,meteohub,2013-01-20 16:34:00,
2013-01-20 11:39:00,57.6,35.8,29.87,NW,323,0.0,5.0,44,0.00,,,0.00,meteohub,2013-01-20 16:39:00,
2013-01-20 11:44:00,57.6,34.7,29.87,SSE,155,2.0,8.0,42,0.00,,,0.00,meteohub,2013-01-20 16:44:00,
2013-01-20 11:49:00,57.9,35.6,29.87,NW,318,3.0,8.0,43,0.00,,,0.00,meteohub,2013-01-20 16:49:00,
2013-01-20 11:54:00,57.7,34.9,29.86,NNW,333,3.0,5.0,42,0.00,,,0.00,meteohub,2013-01-20 16:54:00,
2013-01-20 11:59:00,57.4,35.6,29.86,ENE,71,0.0,7.0,44,0.00,,,0.00,meteohub,2013-01-20 16:59:00,
2013-01-20 12:04:00,57.6,34.7,29.86,NW,325,7.0,12.0,42,0.00,,,0.00,meteohub,2013-01-20 17:04:00,
2013-01-20 12:09:00,57.7,34.2,29.86,WNW,291,2.0,12.0,41,0.00,,,0.00,meteohub,2013-01-20 17:09:00,
2013-01-20 12:14:00,57.6,34.0,29.86,WNW,299,4.0,12.0,41,0.00,,,0.00,meteohub,2013-01-20 17:14:00,
2013-01-20 12:20:00,57.0,32.9,29.85,WSW,254,1.0,9.0,40,0.00,,,0.00,meteohub,2013-01-20 17:20:00,
2013-01-20 12:25:00,57.2,33.1,29.85,SW,226,3.0,8.0,40,0.00,,,0.00,meteohub,2013-01-20 17:25:00,
2013-01-20 12:30:00,57.6,34.0,29.85,West,277,3.0,8.0,41,0.00,,,0.00,meteohub,2013-01-20 17:30:00,
2013-01-20 12:35:00,57.7,32.9,29.85,West,266,1.0,8.0,39,0.00,,,0.00,meteohub,2013-01-20 17:35:00,
2013-01-20 12:40:00,58.5,34.9,29.85,WNW,288,3.0,8.0,41,0.00,,,0.00,meteohub,2013-01-20 17:40:00,
2013-01-20 12:45:00,58.6,33.1,29.85,NW,317,3.0,8.0,38,0.00,,,0.00,meteohub,2013-01-20 17:45:00,
2013-01-20 12:50:00,58.3,33.4,29.85,South,185,1.0,13.0,39,0.00,,,0.00,meteohub,2013-01-20 17:50:00,
2013-01-20 12:55:00,58.5,32.4,29.85,WNW,298,3.0,13.0,37,0.00,,,0.00,meteohub,2013-01-20 17:55:00,
2013-01-20 13:00:00,58.3,30.0,29.85,WSW,240,6.0,13.0,34,0.00,,,0.00,meteohub,2013-01-20 18:00:00,
2013-01-20 13:05:00,58.3,28.6,29.85,NW,315,4.0,9.0,32,0.00,,,0.00,meteohub,2013-01-20 18:05:00,
2013-01-20 13:10:00,58.6,28.9,29.85,SSW,200,3.0,9.0,32,0.00,,,0.00,meteohub,2013-01-20 18:10:00,
2013-01-20 13:15:00,59.0,26.8,29.85,NW,305,2.0,9.0,29,0.00,,,0.00,meteohub,2013-01-20 18:15:00,
2013-01-20 13:20:00,58.8,28.2,29.85,WNW,294,5.0,8.0,31,0.00,,,0.00,meteohub,2013-01-20 18:20:00,
2013-01-20 13:25:00,58.6,25.7,29.85,West,260,5.0,10.0,28,0.00,,,0.00,meteohub,2013-01-20 18:25:00,
2013-01-20 13:30:00,58.5,27.1,29.86,NNW,341,9.0,10.0,30,0.00,,,0.00,meteohub,2013-01-20 18:30:00,
2013-01-20 13:35:00,58.3,26.2,29.86,NW,312,2.0,11.0,29,0.00,,,0.00,meteohub,2013-01-20 18:35:00,
2013-01-20 13:40:00,58.3,26.2,29.86,North,355,4.0,11.0,29,0.00,,,0.00,meteohub,2013-01-20 18:40:00,
2013-01-20 13:45:00,58.3,27.9,29.86,NW,304,2.0,11.0,31,0.00,,,0.00,meteohub,2013-01-20 18:45:00,
2013-01-20 13:50:00,58.1,26.8,29.86,WNW,302,10.0,10.0,30,0.00,,,0.00,meteohub,2013-01-20 18:50:00,
2013-01-20 13:55:00,57.9,25.0,29.86,WNW,300,5.0,12.0,28,0.00,,,0.00,meteohub,2013-01-20 18:55:00,
2013-01-20 14:00:00,57.7,24.8,29.86,NW,312,3.0,13.0,28,0.00,,,0.00,meteohub,2013-01-20 19:00:00,
2013-01-20 14:05:00,57.9,25.0,29.86,WNW,294,5.0,13.0,28,0.00,,,0.00,meteohub,2013-01-20 19:05:00,
2013-01-20 14:10:00,58.1,26.1,29.86,NW,304,2.0,13.0,29,0.00,,,0.00,meteohub,2013-01-20 19:10:00,
2013-01-20 14:15:00,57.7,25.7,29.87,NW,323,6.0,11.0,29,0.00,,,0.00,meteohub,2013-01-20 19:15:00,
2013-01-20 14:20:00,57.4,24.6,29.87,NW,309,6.0,24.0,28,0.00,,,0.00,meteohub,2013-01-20 19:20:00,
2013-01-20 14:25:00,57.0,24.3,29.87,NNW,342,5.0,24.0,28,0.00,,,0.00,meteohub,2013-01-20 19:25:00,
2013-01-20 14:30:00,56.8,24.1,29.87,NNW,329,5.0,24.0,28,0.00,,,0.00,meteohub,2013-01-20 19:30:00,
2013-01-20 14:35:00,56.8,24.1,29.87,WNW,296,3.0,14.0,28,0.00,,,0.00,meteohub,2013-01-20 19:35:00,
2013-01-20 14:40:00,56.7,24.8,29.88,WNW,292,6.0,16.0,29,0.00,,,0.00,meteohub,2013-01-20 19:40:00,
2013-01-20 14:45:00,56.7,23.9,29.88,SE,133,1.0,16.0,28,0.00,,,0.00,meteohub,2013-01-20 19:45:00,
2013-01-20 14:50:00,56.7,23.9,29.88,NW,317,5.0,16.0,28,0.00,,,0.00,meteohub,2013-01-20 19:50:00,
2013-01-20 14:55:00,56.1,22.6,29.88,NW,323,6.0,15.0,27,0.00,,,0.00,meteohub,2013-01-20 19:55:00,
2013-01-20 15:00:00,55.8,23.2,29.88,NNW,330,3.0,15.0,28,0.00,,,0.00,meteohub,2013-01-20 20:00:00,
2013-01-20 15:05:00,55.4,21.0,29.89,NNW,333,3.0,15.0,26,0.00,,,0.00,meteohub,2013-01-20 20:05:00,
2013-01-20 15:10:00,54.9,20.7,29.89,NW,306,3.0,13.0,26,0.00,,,0.00,meteohub,2013-01-20 20:10:00,
2013-01-20 15:15:00,54.7,20.5,29.89,WNW,300,7.0,11.0,26,0.00,,,0.00,meteohub,2013-01-20 20:15:00,
2013-01-20 15:20:00,54.3,21.0,29.90,WNW,299,3.0,11.0,27,0.00,,,0.00,meteohub,2013-01-20 20:20:00,
2013-01-20 15:25:00,54.1,20.8,29.91,NW,312,2.0,11.0,27,0.00,,,0.00,meteohub,2013-01-20 20:25:00,
2013-01-20 15:30:00,54.0,19.8,29.91,West,281,4.0,16.0,26,0.00,,,0.00,meteohub,2013-01-20 20:30:00,
2013-01-20 15:35:00,53.8,18.9,29.91,NW,320,5.0,16.0,25,0.00,,,0.00,meteohub,2013-01-20 20:35:00,
2013-01-20 15:40:00,53.4,18.5,29.91,NW,325,7.0,16.0,25,0.00,,,0.00,meteohub,2013-01-20 20:40:00,
2013-01-20 15:45:00,53.2,19.2,29.91,NW,308,2.0,11.0,26,0.00,,,0.00,meteohub,2013-01-20 20:45:00,
2013-01-20 15:50:00,53.1,18.1,29.91,NW,323,4.0,11.0,25,0.00,,,0.00,meteohub,2013-01-20 20:50:00,
2013-01-20 15:56:00,53.1,19.9,29.91,NW,319,3.0,11.0,27,0.00,,,0.00,meteohub,2013-01-20 20:56:00,
2013-01-20 16:01:00,52.9,17.1,29.92,NNW,329,14.0,14.0,24,0.00,,,0.00,meteohub,2013-01-20 21:01:00,
2013-01-20 16:06:00,52.5,16.7,29.93,NNW,333,3.0,15.0,24,0.00,,,0.00,meteohub,2013-01-20 21:06:00,
2013-01-20 16:11:00,52.3,15.6,29.93,West,281,2.0,15.0,23,0.00,,,0.00,meteohub,2013-01-20 21:11:00,
2013-01-20 16:16:00,52.0,15.3,29.94,NNW,329,3.0,15.0,23,0.00,,,0.00,meteohub,2013-01-20 21:16:00,
2013-01-20 16:21:00,51.6,14.0,29.94,SW,234,9.0,14.0,22,0.00,,,0.00,meteohub,2013-01-20 21:21:00,
2013-01-20 16:26:00,51.4,12.7,29.95,NW,319,4.0,14.0,21,0.00,,,0.00,meteohub,2013-01-20 21:26:00,
2013-01-20 16:31:00,51.3,12.6,29.95,NW,304,3.0,14.0,21,0.00,,,0.00,meteohub,2013-01-20 21:31:00,
2013-01-20 16:36:00,50.9,14.4,29.96,NW,312,0.0,12.0,23,0.00,,,0.00,meteohub,2013-01-20 21:36:00,
2013-01-20 16:41:00,50.5,14.2,29.96,NW,308,3.0,12.0,23,0.00,,,0.00,meteohub,2013-01-20 21:41:00,
2013-01-20 16:46:00,50.4,14.0,29.96,NNW,333,5.0,8.0,23,0.00,,,0.00,meteohub,2013-01-20 21:46:00,
2013-01-20 16:51:00,50.4,15.8,29.96,NW,326,2.0,12.0,25,0.00,,,0.00,meteohub,2013-01-20 21:51:00,
2013-01-20 16:56:00,50.0,15.6,29.96,NNW,346,3.0,12.0,25,0.00,,,0.00,meteohub,2013-01-20 21:56:00,
2013-01-20 17:01:00,49.6,17.1,29.96,NW,315,2.0,7.0,27,0.00,,,0.00,meteohub,2013-01-20 22:01:00,
2013-01-20 17:06:00,49.5,15.1,29.96,NW,325,4.0,8.0,25,0.00,,,0.00,meteohub,2013-01-20 22:06:00,
2013-01-20 17:11:00,49.3,15.8,29.97,NNW,336,3.0,8.0,26,0.00,,,0.00,meteohub,2013-01-20 22:11:00,
2013-01-20 17:16:00,48.9,15.4,29.97,WNW,285,4.0,9.0,26,0.00,,,0.00,meteohub,2013-01-20 22:16:00,
2013-01-20 17:21:00,48.7,15.4,29.97,WNW,286,3.0,9.0,26,0.00,,,0.00,meteohub,2013-01-20 22:21:00,
2013-01-20 17:27:00,48.0,14.7,29.98,NNW,327,3.0,10.0,26,0.00,,,0.00,meteohub,2013-01-20 22:27:00,
2013-01-20 17:32:00,47.8,14.5,29.98,NW,326,2.0,11.0,26,0.00,,,0.00,meteohub,2013-01-20 22:32:00,
2013-01-20 17:37:00,47.5,14.4,29.98,NNW,328,2.0,11.0,26,0.00,,,0.00,meteohub,2013-01-20 22:37:00,
2013-01-20 17:42:00,47.1,13.1,29.98,NW,307,3.0,9.0,25,0.00,,,0.00,meteohub,2013-01-20 22:42:00,
2013-01-20 17:47:00,46.9,13.8,29.98,NW,309,4.0,9.0,26,0.00,,,0.00,meteohub,2013-01-20 22:47:00,
2013-01-20 17:52:00,46.6,13.5,29.99,WNW,302,5.0,9.0,26,0.00,,,0.00,meteohub,2013-01-20 22:52:00,
2013-01-20 17:57:00,46.6,12.6,29.99,WNW,290,3.0,9.0,25,0.00,,,0.00,meteohub,2013-01-20 22:57:00,
2013-01-20 18:03:00,46.4,12.6,29.99,NW,313,4.0,8.0,25,0.00,,,0.00,meteohub,2013-01-20 23:03:00,
2013-01-20 18:08:00,46.0,12.2,30.00,NW,319,2.0,8.0,25,0.00,,,0.00,meteohub,2013-01-20 23:08:00,
2013-01-20 18:13:00,45.9,11.1,30.00,NW,317,2.0,8.0,24,0.00,,,0.00,meteohub,2013-01-20 23:13:00,
2013-01-20 18:18:00,45.7,10.9,30.00,NW,305,2.0,8.0,24,0.00,,,0.00,meteohub,2013-01-20 23:18:00,
2013-01-20 18:25:00,45.7,12.7,30.01,NW,315,8.0,13.0,26,0.00,,,0.00,meteohub,2013-01-20 23:25:00,
2013-01-20 18:30:00,45.3,11.5,30.01,WNW,300,3.0,13.0,25,0.00,,,0.00,meteohub,2013-01-20 23:30:00,
2013-01-20 18:35:00,45.1,11.5,30.01,NW,320,1.0,13.0,25,0.00,,,0.00,meteohub,2013-01-20 23:35:00,
2013-01-20 18:40:00,44.8,10.2,30.01,NW,326,3.0,9.0,24,0.00,,,0.00,meteohub,2013-01-20 23:40:00,
2013-01-20 18:45:00,44.6,10.9,30.01,NW,314,3.0,8.0,25,0.00,,,0.00,meteohub,2013-01-20 23:45:00,
2013-01-20 18:50:00,44.6,10.0,30.02,NNW,336,7.0,8.0,24,0.00,,,0.00,meteohub,2013-01-20 23:50:00,
2013-01-20 18:55:00,44.6,10.0,30.01,NW,315,4.0,9.0,24,0.00,,,0.00,meteohub,2013-01-20 23:55:00,
2013-01-20 19:00:00,44.2,9.7,30.01,NNW,331,3.0,9.0,24,0.00,,,0.00,meteohub,2013-01-21 00:00:00,
2013-01-20 19:05:00,44.2,10.6,30.01,NW,319,4.0,9.0,25,0.00,,,0.00,meteohub,2013-01-21 00:05:00,
2013-01-20 19:10:00,44.1,11.3,30.02,NW,309,2.0,7.0,26,0.00,,,0.00,meteohub,2013-01-21 00:10:00,
2013-01-20 19:15:00,43.5,10.9,30.02,NW,317,4.0,7.0,26,0.00,,,0.00,meteohub,2013-01-21 00:15:00,
2013-01-20 19:20:00,43.3,11.7,30.03,NW,312,2.0,6.0,27,0.00,,,0.00,meteohub,2013-01-21 00:20:00,
2013-01-20 19:25:00,43.2,11.5,30.03,NW,325,1.0,6.0,27,0.00,,,0.00,meteohub,2013-01-21 00:25:00,
2013-01-20 19:30:00,43.0,12.0,30.03,WNW,300,2.0,7.0,28,0.00,,,0.00,meteohub,2013-01-21 00:30:00,
2013-01-20 19:35:00,43.0,12.0,30.03,WNW,301,2.0,9.0,28,0.00,,,0.00,meteohub,2013-01-21 00:35:00,
2013-01-20 19:40:00,42.6,12.6,30.04,North,0,4.0,9.0,29,0.00,,,0.00,meteohub,2013-01-21 00:40:00,
2013-01-20 19:45:00,42.4,12.4,30.04,NW,319,1.0,9.0,29,0.00,,,0.00,meteohub,2013-01-21 00:45:00,
2013-01-20 19:50:00,42.1,12.0,30.04,NW,315,2.0,8.0,29,0.00,,,0.00,meteohub,2013-01-21 00:50:00,
2013-01-20 19:55:00,41.7,12.6,30.04,NW,317,2.0,8.0,30,0.00,,,0.00,meteohub,2013-01-21 00:55:00,
2013-01-20 20:00:00,41.5,13.1,30.05,WNW,302,1.0,8.0,31,0.00,,,0.00,meteohub,2013-01-21 01:00:00,
2013-01-20 20:05:00,41.5,12.4,30.05,NW,304,4.0,7.0,30,0.00,,,0.00,meteohub,2013-01-21 01:05:00,
2013-01-20 20:10:00,41.4,13.6,30.05,NW,314,0.0,7.0,32,0.00,,,0.00,meteohub,2013-01-21 01:10:00,
2013-01-20 20:15:00,41.2,13.5,30.05,NW,314,0.0,7.0,32,0.00,,,0.00,meteohub,2013-01-21 01:15:00,
2013-01-20 20:20:00,40.8,14.0,30.05,NW,309,0.0,4.0,33,0.00,,,0.00,meteohub,2013-01-21 01:20:00,
2013-01-20 20:25:00,40.5,13.6,30.05,NW,309,0.0,2.0,33,0.00,,,0.00,meteohub,2013-01-21 01:25:00,
2013-01-20 20:30:00,39.9,14.5,30.06,NW,309,1.0,2.0,35,0.00,,,0.00,meteohub,2013-01-21 01:30:00,
2013-01-20 20:35:00,39.6,14.2,30.06,NW,309,1.0,1.0,35,0.00,,,0.00,meteohub,2013-01-21 01:35:00,
2013-01-20 20:40:00,39.4,14.0,30.06,NW,316,1.0,5.0,35,0.00,,,0.00,meteohub,2013-01-21 01:40:00,
2013-01-20 20:44:00,39.4,14.0,30.06,NNW,338,0.0,5.0,35,0.00,,,0.00,meteohub,2013-01-21 01:44:00,
2013-01-20 20:47:00,39.6,15.4,30.06,NNW,338,0.0,5.0,37,0.00,,,0.00,meteohub,2013-01-21 01:47:00,
2013-01-20 20:52:00,39.4,15.3,30.06,NNW,329,1.0,5.0,37,0.00,,,0.00,meteohub,2013-01-21 01:52:00,
2013-01-20 20:59:00,39.0,14.9,30.07,WNW,287,1.0,5.0,37,0.00,,,0.00,meteohub,2013-01-21 01:59:00,
2013-01-20 21:04:00,38.8,15.4,30.07,North,5,0.0,2.0,38,0.00,,,0.00,meteohub,2013-01-21 02:04:00,
2013-01-20 21:09:00,38.7,15.8,30.08,NNW,339,1.0,3.0,39,0.00,,,0.00,meteohub,2013-01-21 02:09:00,
2013-01-20 21:14:00,38.5,15.6,30.07,NNW,327,2.0,3.0,39,0.00,,,0.00,meteohub,2013-01-21 02:14:00,
2013-01-20 21:19:00,38.3,14.9,30.08,NNW,327,2.0,3.0,38,0.00,,,0.00,meteohub,2013-01-21 02:19:00,
2013-01-20 21:24:00,38.1,15.3,30.08,NNW,330,2.0,3.0,39,0.00,,,0.00,meteohub,2013-01-21 02:24:00,
2013-01-20 21:31:00,38.1,15.3,30.07,NNW,329,2.0,3.0,39,0.00,,,0.00,meteohub,2013-01-21 02:31:00,
2013-01-20 21:36:00,37.9,15.8,30.07,NW,320,1.0,7.0,40,0.00,,,0.00,meteohub,2013-01-21 02:36:00,
2013-01-20 21:41:00,37.9,15.8,30.07,WNW,296,2.0,7.0,40,0.00,,,0.00,meteohub,2013-01-21 02:41:00,
2013-01-20 21:46:00,37.8,15.6,30.07,NW,325,2.0,4.0,40,0.00,,,0.00,meteohub,2013-01-21 02:46:00,
2013-01-20 21:51:00,37.8,15.1,30.07,NNW,335,2.0,4.0,39,0.00,,,0.00,meteohub,2013-01-21 02:51:00,
2013-01-20 21:56:00,37.8,15.6,30.07,WNW,301,0.0,5.0,40,0.00,,,0.00,meteohub,2013-01-21 02:56:00,
2013-01-20 22:01:00,37.6,15.4,30.07,NNW,332,1.0,5.0,40,0.00,,,0.00,meteohub,2013-01-21 03:01:00,
2013-01-20 22:06:00,37.6,15.4,30.07,NW,308,1.0,5.0,40,0.00,,,0.00,meteohub,2013-01-21 03:06:00,
2013-01-20 22:11:00,37.6,15.4,30.07,NNW,348,2.0,5.0,40,0.00,,,0.00,meteohub,2013-01-21 03:11:00,
2013-01-20 22:16:00,37.4,15.3,30.07,NW,315,3.0,5.0,40,0.00,,,0.00,meteohub,2013-01-21 03:16:00,
2013-01-20 22:22:00,37.4,15.3,30.08,WNW,294,0.0,5.0,40,0.00,,,0.00,meteohub,2013-01-21 03:22:00,
2013-01-20 22:27:00,37.2,15.6,30.08,WNW,294,0.0,5.0,41,0.00,,,0.00,meteohub,2013-01-21 03:27:00,
2013-01-20 22:33:00,37.0,15.4,30.08,WNW,294,0.0,5.0,41,0.00,,,0.00,meteohub,2013-01-21 03:33:00,
2013-01-20 22:38:00,36.7,15.8,30.09,WNW,294,0.0,2.0,42,0.00,,,0.00,meteohub,2013-01-21 03:38:00,
2013-01-20 22:43:00,36.5,16.2,30.09,NW,318,1.0,2.0,43,0.00,,,0.00,meteohub,2013-01-21 03:43:00,
2013-01-20 22:48:00,36.3,16.0,30.09,WNW,303,1.0,3.0,43,0.00,,,0.00,meteohub,2013-01-21 03:48:00,
2013-01-20 22:53:00,36.3,16.5,30.09,WNW,303,0.0,5.0,44,0.00,,,0.00,meteohub,2013-01-21 03:53:00,
2013-01-20 22:58:00,36.1,16.3,30.09,WNW,303,0.0,5.0,44,0.00,,,0.00,meteohub,2013-01-21 03:58:00,
2013-01-20 23:03:00,36.0,16.2,30.10,NW,323,5.0,5.0,44,0.00,,,0.00,meteohub,2013-01-21 04:03:00,
2013-01-20 23:08:00,36.0,15.6,30.10,NW,309,0.0,8.0,43,0.00,,,0.00,meteohub,2013-01-21 04:08:00,
2013-01-20 23:13:00,36.0,15.6,30.10,NW,311,1.0,8.0,43,0.00,,,0.00,meteohub,2013-01-21 04:13:00,
2013-01-20 23:18:00,36.0,15.6,30.10,NW,321,0.0,8.0,43,0.00,,,0.00,meteohub,2013-01-21 04:18:00,
2013-01-20 23:23:00,36.0,15.6,30.10,NNW,331,0.0,3.0,43,0.00,,,0.00,meteohub,2013-01-21 04:23:00,
2013-01-20 23:28:00,36.0,16.2,30.10,NNW,328,0.0,3.0,44,0.00,,,0.00,meteohub,2013-01-21 04:28:00,
2013-01-20 23:33:00,35.8,16.0,30.10,NNW,328,0.0,3.0,44,0.00,,,0.00,meteohub,2013-01-21 04:33:00,
2013-01-20 23:38:00,35.6,16.3,30.10,NNW,328,0.0,2.0,45,0.00,,,0.00,meteohub,2013-01-21 04:38:00,
2013-01-20 23:43:00,35.4,16.2,30.10,West,263,0.0,2.0,45,0.00,,,0.00,meteohub,2013-01-21 04:43:00,
2013-01-20 23:49:00,35.1,16.3,30.10,WNW,292,0.0,2.0,46,0.00,,,0.00,meteohub,2013-01-21 04:49:00,
2013-01-20 23:54:00,34.9,15.6,30.10,NW,304,2.0,2.0,45,0.00,,,0.00,meteohub,2013-01-21 04:54:00,
2013-01-20 23:59:00,34.9,16.2,30.10,WNW,292,0.0,3.0,46,0.00,,,0.00,meteohub,2013-01-21 04:59:00,